Location: Whispering Pines Observatory
(39.4020°N, 104.7430°W)
Time: 15:37:18
(UTC-06:00)

MOS 1 Rocket - Visible Passes

Search period start: 23 April 2017 00:00
Search period end: 03 May 2017 00:00
Orbit: 614 x 832 km, 97.4° (Epoch: 22 April)

Date Brightness Start Highest point End Pass type
(mag) Time Alt. Az. Time Alt. Az. Time Alt. Az.
23 Apr 4.9 03:33:22 10° NE 03:37:02 27° E 03:38:40 21° SE visible
23 Apr 4.3 05:11:43 10° NNW 05:15:13 24° WNW 05:17:59 14° WSW visible
24 Apr 3.0 04:22:01 10° N 04:26:21 84° WNW 04:28:31 30° SSW visible
25 Apr 4.8 03:33:28 10° NE 03:37:12 28° E 03:39:02 21° SE visible
25 Apr 4.4 05:11:53 10° NNW 05:15:22 24° WNW 05:18:22 13° WSW visible
26 Apr 3.0 04:22:09 10° N 04:26:30 82° WNW 04:28:54 27° SSW visible
27 Apr 4.8 03:33:34 10° NE 03:37:22 29° E 03:39:26 20° SE visible
27 Apr 4.4 05:12:02 10° NNW 05:15:31 24° WNW 05:18:45 12° WSW visible
28 Apr 3.1 04:22:17 10° N 04:26:40 80° WNW 04:29:17 25° SSW visible
29 Apr 4.8 03:33:40 10° NE 03:37:32 30° E 03:39:49 20° SE visible
29 Apr 4.5 05:12:11 10° NNW 05:15:40 24° WNW 05:19:09 11° WSW visible
30 Apr 3.1 04:22:24 10° N 04:26:50 78° WNW 04:29:40 23° SSW visible
01 May 4.7 03:33:46 10° NE 03:37:43 31° E 03:40:12 19° SE visible
01 May 4.5 05:12:19 10° NNW 05:15:50 23° WNW 05:19:27 10° WSW visible
02 May 3.1 04:22:32 10° N 04:26:59 76° WNW 04:30:03 21° SSW visible
